[[{"header":{"parameterUnit":"m.s-1","parameterCategory":1,"la1":30.2991,"la2":30.254,"lo1":-89.0895,"lo2":-89.0444,"dy":0.0017,"dx":0.0017,"nx":28,"ny":28,"refTime":"2025-04-14T03:00:00:Z","depth":0,"parameterNumber":2,"parameterNumberName":"U-component_of_WINDS"},"data":[0,0,0,0,0,0,0,0,0,0,0,0,0,0,0,0,0,0,0,0,0,0,0,0,0,0,0,0,0,0,0,0,0,0,0,0,0,0,0,0,0,0,0,0,0,0,0,0,0,0,0,0,0,0,0,0,0,0,5.7813,5.7815,0,5.7993,5.7995,5.7997,5.7955,5.7951,5.7948,5.7945,5.8131,5.8139,5.8147,0,0,0,0,0,0,0,0,0,0,0,0,0,5.7435,5.7442,5.7813,5.7815,5.7818,5.7992,5.7995,5.7997,5.7956,5.7951,5.7947,5.7943,5.8128,5.8138,5.8147,0,0,0,0,0,0,0,0,0,0,0,0,0,5.7605,5.7445,5.7813,5.7818,5.782,5.7992,5.7995,5.7998,5.7956,5.7951,5.7946,5.7941,5.8125,5.8137,5.8149,5.8327,0,0,5.8186,5.8191,0,0,0,0,0,0,0,0,5.7596,5.7619,5.7815,5.7818,5.7821,5.7946,5.7929,5.8108,5.7958,5.7905,5.7945,5.7939,5.8074,5.809,5.8135,5.8336,5.8344,5.8187,5.8195,5.82,5.8203,0,0,0,0,0,0,0,5.7584,5.7611,5.7884,5.7818,5.7821,5.7811,5.783,5.7963,5.8016,5.7909,5.7906,5.7928,5.8074,5.8123,5.8139,5.8346,5.8187,5.8198,5.8205,5.821,5.87,5.8706,0,0,0,0,0,0,5.757,5.7602,5.7878,5.789,5.7693,5.7822,5.7843,5.7911,5.8014,5.8025,5.7932,5.7925,5.8105,5.8125,5.8145,5.8359,5.82,5.8211,5.8218,5.8694,5.8701,5.8708,0,0,0,0,0,0,5.7562,5.7595,5.7871,5.7745,5.7779,5.7834,5.7911,5.7917,5.7966,5.8032,5.8041,5.7972,5.8101,5.8128,5.8281,5.8365,5.8217,5.8228,5.8688,5.8697,5.8704,5.8789,0,0,0,0,0,0,5.7551,5.7592,5.7661,5.7747,5.7786,5.8005,5.7916,5.7925,5.7987,5.798,5.8072,5.8082,5.8099,5.8263,5.8294,5.8379,5.8237,5.8681,5.8692,5.8702,5.8779,5.8799,5.8816,0,0,0,0,0,5.7538,5.7678,5.7664,5.7698,5.7873,5.801,5.8032,5.8048,5.7994,5.8063,5.8105,5.8079,5.8351,5.8279,5.8313,5.8403,5.8675,5.8689,5.8701,5.877,5.8795,5.8816,0,0,0,0,0,0,5.7602,5.769,5.7675,5.7848,5.7921,5.8002,5.809,5.8074,5.8166,5.8155,5.8172,5.8193,5.8349,5.8392,5.8311,5.858,5.8505,5.8525,5.8546,5.857,5.8589,5.8575,5.8247,0,0,0,0,0,5.7636,5.7739,5.781,5.7956,5.7993,5.8035,5.8096,5.8101,5.8178,5.821,5.8263,5.8339,5.8441,5.8508,5.8606,5.8785,5.8803,5.8863,5.8882,5.8897,5.8914,5.9009,5.9036,5.875,5.8749,5.8749,0,0,5.7707,5.7768,5.7833,5.797,5.8028,5.8134,5.8062,5.8178,5.8257,5.8228,5.8375,5.8417,5.8503,5.8669,5.8745,5.8709,5.8997,5.8913,5.8925,5.8934,5.9025,5.9052,5.9076,5.8758,5.8757,5.8755,0,0,5.7892,5.7949,5.8075,5.8134,5.8221,5.8248,5.8278,5.8361,5.8387,5.8535,5.8515,5.8609,5.8785,5.8846,5.8901,5.9106,5.9086,5.9138,5.9236,5.9329,5.9351,5.9371,5.9443,5.9468,5.9155,5.9155,5.9155,0,5.797,5.8129,5.8142,5.8259,5.832,5.8297,5.8424,5.8481,5.8596,5.8638,5.8597,5.8815,5.8872,5.9051,5.9101,5.9146,5.918,5.9127,5.9347,5.9367,5.9386,5.9454,5.9481,5.916,5.916,5.9159,5.9159,0,5.8219,5.833,5.8421,5.8532,5.8603,5.8725,5.8756,5.8826,5.8825,5.8856,5.9006,5.9073,5.9182,5.9225,5.9227,5.9404,5.9379,5.9342,5.9267,5.9419,5.9483,5.9509,5.9168,5.9166,5.9165,5.9163,0,0,5.845,5.8565,5.8598,5.8647,5.8741,5.8826,5.8947,5.9053,5.9112,5.9192,5.9292,5.9441,5.9406,5.9468,5.9476,5.9557,5.9713,5.951,5.9512,5.9544,5.991,5.9936,5.9966,5.97,5.9705,5.9709,5.9902,0,5.8642,5.8853,5.8867,5.9058,5.9159,5.9138,5.9242,5.9311,5.9343,5.9433,5.9468,5.9572,5.952,5.9557,5.9636,5.9677,5.9786,5.9663,5.9792,5.9797,5.977,6.0,6.0029,6.0208,5.9928,5.9932,5.9935,0,5.8894,5.898,5.918,5.9257,5.93,5.9394,5.9491,5.9578,5.9655,5.9672,5.974,5.9736,5.9858,5.9779,5.9947,5.9863,5.9917,5.9945,5.9952,5.9964,5.9874,6.0017,6.0266,6.0292,5.9975,5.9972,5.9969,0,5.904,5.9206,5.9346,5.9389,5.9483,5.9549,5.9592,5.9663,5.9726,5.9811,5.9851,5.995,6.0004,6.008,6.0102,6.0042,6.0269,6.0192,6.0286,6.0285,6.0334,6.033,6.0594,6.0371,6.0371,6.037,6.037,0,5.9252,5.9375,5.9413,5.9499,5.9636,5.9651,5.9786,5.9824,5.9888,5.9981,5.9969,6.0057,6.0081,6.0173,6.0191,6.0326,6.0351,6.0368,6.0371,6.0369,6.0366,6.0403,6.0391,6.0377,6.0376,6.0374,6.0373,0,5.9438,5.9469,5.962,5.9696,5.9718,5.9815,5.988,5.9963,5.9992,6.011,6.0138,6.0184,6.0291,6.0321,6.045,6.0462,6.0621,6.0613,6.0594,6.0594,6.0685,6.0675,6.098,6.102,6.0773,6.0775,6.0777,0,5.9571,5.9664,5.975,5.981,5.9855,5.9954,6.0017,6.0035,6.01,6.0194,6.0265,6.037,6.0455,6.0628,6.0672,6.077,6.0764,6.0864,6.0779,6.0772,6.0763,6.0757,6.0765,6.088,6.0883,6.0885,6.0887,0,5.9802,5.9812,5.9902,5.9998,6.0072,6.0149,6.0222,6.0272,6.0301,6.0375,6.0484,6.055,6.068,6.0784,6.0883,6.0926,6.0911,6.0913,6.0939,6.0937,6.0921,6.0929,6.0637,6.0906,6.0904,6.0903,6.0901,6.0901,5.9965,6.0046,6.0118,6.0218,6.0275,6.0343,6.0423,6.0462,6.0552,6.0659,6.0664,6.0782,6.0854,6.0985,6.1034,6.1125,6.1095,6.1135,6.1144,6.1153,6.116,6.0908,6.1144,6.1143,6.1143,6.1142,6.1142,0,6.0194,6.0238,6.0331,6.0432,6.0511,6.0489,6.0568,6.0635,6.0738,6.0807,6.089,6.1014,6.1114,6.1166,6.1266,6.1329,6.1324,6.1355,6.1349,6.1359,6.1182,6.1148,6.1356,6.1356,6.1356,6.1356,6.1356,6.1356,6.0322,6.0458,6.0476,6.0639,6.0683,6.0797,6.0844,6.0906,6.096,6.1098,6.1181,6.1214,6.1276,6.1379,6.1469,6.1482,6.1519,6.1552,6.1561,6.1394,6.1372,6.1351,6.1319,6.156,6.1561,6.173,6.1732,6.1733]},{"header":{"parameterUnit":"m.s-1","parameterCategory":1,"la1":30.2991,"la2":30.254,"lo1":-89.0895,"lo2":-89.0444,"dy":0.0017,"dx":0.0017,"nx":28,"ny":28,"refTime":"2025-04-14T03:00:00:Z","depth":0,"parameterNumber":3,"parameterNumberName":"V-component_of_WINDS"},"data":[0,0,0,0,0,0,0,0,0,0,0,0,0,0,0,0,0,0,0,0,0,0,0,0,0,0,0,0,0,0,0,0,0,0,0,0,0,0,0,0,0,0,0,0,0,0,0,0,0,0,0,0,0,0,0,0,0,0,1.2151,1.2151,0,1.218,1.2181,1.2181,1.2154,1.2153,1.2152,1.2151,1.2183,1.2185,1.2187,0,0,0,0,0,0,0,0,0,0,0,0,0,1.2072,1.2073,1.2151,1.2151,1.2151,1.218,1.2181,1.2181,1.2155,1.2153,1.2152,1.2151,1.2182,1.2185,1.2187,0,0,0,0,0,0,0,0,0,0,0,0,0,1.2104,1.2074,1.215,1.2142,1.2141,1.218,1.2181,1.2181,1.2155,1.2153,1.2152,1.215,1.2182,1.2184,1.2187,1.2237,0,0,1.2196,1.2197,0,0,0,0,0,0,0,0,1.2102,1.2107,1.2143,1.2142,1.2142,1.2162,1.2164,1.22,1.2155,1.215,1.2151,1.2149,1.2177,1.218,1.219,1.2238,1.224,1.2196,1.2198,1.2199,1.22,0,0,0,0,0,0,0,1.21,1.2106,1.2162,1.2143,1.2143,1.2136,1.2139,1.2171,1.2172,1.215,1.2148,1.2152,1.2177,1.2187,1.219,1.224,1.2196,1.2198,1.22,1.2201,1.233,1.2332,0,0,0,0,0,0,1.2099,1.2104,1.2161,1.2163,1.2118,1.2139,1.2142,1.2157,1.2172,1.2173,1.2153,1.2151,1.2183,1.2187,1.2191,1.225,1.2199,1.2201,1.2203,1.2328,1.233,1.2332,0,0,0,0,0,0,1.2097,1.2104,1.216,1.2133,1.214,1.2142,1.2159,1.2159,1.2169,1.2174,1.2175,1.2163,1.2182,1.2187,1.2225,1.2251,1.2203,1.2205,1.2326,1.2329,1.2331,1.2368,0,0,0,0,0,0,1.2095,1.2104,1.2123,1.2134,1.2141,1.2194,1.2161,1.216,1.2173,1.217,1.2184,1.2185,1.2181,1.2221,1.2228,1.2254,1.2207,1.2324,1.2327,1.2331,1.2365,1.2372,1.2378,0,0,0,0,0,1.2092,1.2132,1.2124,1.2131,1.2165,1.2195,1.22,1.2195,1.2176,1.2195,1.2198,1.2184,1.2247,1.2225,1.2233,1.226,1.2322,1.2326,1.233,1.2362,1.237,1.2378,0,0,0,0,0,0,1.2125,1.2134,1.2124,1.2169,1.2182,1.2191,1.2215,1.2204,1.2223,1.2219,1.2212,1.2215,1.2255,1.2261,1.2237,1.2308,1.2281,1.2287,1.2303,1.2311,1.2317,1.2316,1.221,0,0,0,0,0,1.2137,1.2161,1.2167,1.2206,1.2213,1.2213,1.2226,1.2221,1.2234,1.2239,1.2245,1.2259,1.2281,1.2296,1.2317,1.2365,1.2368,1.2387,1.2394,1.2399,1.2404,1.2429,1.2438,1.2345,1.2345,1.2345,0,0,1.2163,1.2171,1.2186,1.2213,1.2222,1.2247,1.2218,1.2245,1.2264,1.2243,1.228,1.2285,1.2299,1.2342,1.2361,1.2348,1.243,1.2404,1.2408,1.241,1.2434,1.2443,1.2451,1.2348,1.2348,1.2347,0,0,1.2223,1.2231,1.2264,1.2274,1.2287,1.2287,1.2295,1.2306,1.2308,1.2344,1.2329,1.2351,1.239,1.24,1.2411,1.2474,1.2461,1.2481,1.2515,1.254,1.2547,1.2553,1.2576,1.2584,1.2486,1.2486,1.2486,0,1.2254,1.229,1.2283,1.2311,1.2323,1.2305,1.2338,1.2348,1.2368,1.2377,1.2362,1.241,1.2418,1.2463,1.2478,1.2487,1.2496,1.248,1.2546,1.2553,1.2559,1.258,1.2588,1.2488,1.2488,1.2487,1.2487,0,1.2327,1.2353,1.2378,1.2397,1.2412,1.2443,1.244,1.2456,1.2449,1.245,1.2486,1.2495,1.2518,1.2528,1.2522,1.2572,1.2563,1.2547,1.2521,1.257,1.259,1.2598,1.2491,1.249,1.249,1.2489,0,0,1.241,1.2424,1.2433,1.2441,1.2455,1.2474,1.2504,1.2525,1.2539,1.2553,1.2578,1.2611,1.2596,1.2608,1.2602,1.2624,1.2672,1.2605,1.2605,1.2618,1.2728,1.274,1.275,1.2664,1.2665,1.2667,1.2727,0,1.2471,1.2522,1.2516,1.2565,1.2588,1.257,1.2596,1.2607,1.2609,1.2629,1.263,1.2654,1.2632,1.2639,1.2659,1.2662,1.2695,1.2658,1.2687,1.2689,1.2685,1.276,1.2774,1.283,1.2735,1.2736,1.2737,0,1.2549,1.2565,1.2617,1.2625,1.2635,1.2658,1.2677,1.2696,1.2708,1.2707,1.272,1.271,1.274,1.2712,1.2753,1.2728,1.2739,1.2742,1.2744,1.2747,1.2716,1.2766,1.2848,1.2857,1.2749,1.2748,1.2747,0,1.2604,1.2639,1.2674,1.2682,1.2693,1.271,1.2715,1.2725,1.2738,1.2754,1.2762,1.2782,1.2793,1.2808,1.2803,1.2783,1.2845,1.2817,1.2846,1.2846,1.286,1.286,1.2946,1.2867,1.2867,1.2866,1.2866,0,1.2673,1.2705,1.2699,1.2721,1.2756,1.2748,1.2783,1.2787,1.2795,1.2817,1.2803,1.2824,1.2817,1.2837,1.2834,1.2868,1.2873,1.2873,1.2872,1.2875,1.2875,1.2883,1.2879,1.2869,1.2868,1.2868,1.2867,0,1.2741,1.2738,1.2776,1.2783,1.2785,1.2811,1.2817,1.2837,1.2837,1.2865,1.2871,1.2871,1.2894,1.2891,1.2917,1.2915,1.2957,1.2951,1.2953,1.2952,1.2981,1.2978,1.3076,1.3088,1.3001,1.3002,1.3002,0,1.2786,1.281,1.2819,1.2833,1.2839,1.2861,1.2874,1.2866,1.288,1.2895,1.2913,1.2935,1.2952,1.299,1.2992,1.3012,1.3006,1.3039,1.3009,1.3011,1.3007,1.3006,1.3008,1.3045,1.3046,1.3047,1.3048,0,1.2865,1.2862,1.2881,1.2899,1.2914,1.2928,1.2941,1.2953,1.2946,1.2962,1.2986,1.2999,1.3025,1.3047,1.3065,1.307,1.3058,1.3057,1.3065,1.3068,1.3068,1.3069,1.297,1.3055,1.3054,1.3054,1.3053,1.3053,1.2923,1.2944,1.2953,1.2974,1.2983,1.2994,1.3014,1.3015,1.3034,1.3055,1.3049,1.3075,1.3085,1.3108,1.3116,1.3136,1.3124,1.3135,1.3138,1.3141,1.3145,1.3064,1.3139,1.3139,1.3139,1.3139,1.3139,0,1.3002,1.3007,1.3026,1.3044,1.306,1.3046,1.3059,1.3074,1.3097,1.3107,1.3124,1.315,1.3171,1.3174,1.3194,1.3209,1.3204,1.3215,1.3214,1.3215,1.3154,1.3146,1.3219,1.3219,1.3219,1.3219,1.3219,1.3219,1.3045,1.3078,1.3076,1.3114,1.3119,1.3144,1.3152,1.3163,1.3171,1.3201,1.3218,1.322,1.3227,1.3247,1.3265,1.3265,1.3273,1.3286,1.3284,1.3228,1.322,1.3212,1.3204,1.3288,1.3288,1.3344,1.3344,1.3344]}]]